Tracking 32991 objects as of 22-Jan-2026
HD Live streaming from Space Station
objects crossing your sky now

FREGAT DEB

Track FREGAT DEB now!
10-day predictions


NORAD ID: 45814
Int'l Code: 2011-037AY
Perigee: 1,010.2 km
Apogee: 2,774.4 km
Inclination: 51.1 °
Period: 124.6 minutes
Semi major axis: 8263 km
RCS: Unknown
Launch date: July 18, 2011
Source: Commonwealth of Independent States (former USSR) (CIS)
Launch site: TYURATAM MISSILE AND SPACE COMPLEX (TTMTR)

Note: This is SATELLITE DEBRIS
Your satellite tracking list
Your tracking list is empty




NASA's NSSDC Master Catalog

Two Line Element Set (TLE):
1 45814U 11037AY  26017.84383112 -.00000764  00000-0 -34919-2 0  9997
2 45814  51.1000 231.9829 1067465  56.7581 313.1008 11.55769247234367
Source of the keplerian elements: AFSPC